Location: Windsor
(43.2292°N, 89.3015°W)
Time: 01:53:47
(UTC+00:00)

MOZHAYETS 4 - Visible Passes

Search period start: 30 June 2022 00:00
Search period end: 10 July 2022 00:00
Orbit: 660 x 679 km, 98.2° (Epoch: 29 June)

Date Brightness Start Highest point End Pass type
(mag) Time Alt. Az. Time Alt. Az. Time Alt. Az.
30 Jun 10.3 07:01:45 10° ESE 07:04:42 17° ENE 07:07:39 10° NNE visible
30 Jun 7.9 08:38:02 18° S 08:41:20 56° W 08:45:53 10° NNW visible
01 Jul 9.3 07:32:49 10° SE 07:36:56 33° ENE 07:41:03 10° N visible
01 Jul 8.8 09:10:58 14° SW 09:14:00 26° W 09:17:54 10° NW visible
02 Jul 8.0 08:05:42 16° SSE 08:09:18 69° ENE 08:13:54 10° N visible
02 Jul 9.7 09:44:52 10° WSW 09:46:50 12° W 09:48:49 10° WNW visible
03 Jul 10.3 07:02:14 10° ESE 07:05:11 17° ENE 07:08:08 10° NNE visible
03 Jul 7.9 08:38:38 19° S 08:41:49 55° W 08:46:21 10° NNW visible
04 Jul 9.3 07:33:22 10° SE 07:37:24 33° ENE 07:41:31 10° N visible
04 Jul 8.8 09:11:34 15° SW 09:14:30 26° W 09:18:22 10° NW visible
05 Jul 8.0 08:06:19 17° SSE 08:09:47 70° ENE 08:14:22 10° N visible
05 Jul 9.7 09:45:24 10° WSW 09:47:19 12° W 09:49:14 10° WNW visible
06 Jul 10.3 07:02:42 10° ESE 07:05:40 17° ENE 07:08:37 10° NNE visible
06 Jul 7.9 08:39:15 20° S 08:42:18 55° W 08:46:50 10° NNW visible
07 Jul 9.2 07:33:59 11° SE 07:37:53 33° ENE 07:41:59 10° N visible
07 Jul 8.8 09:12:11 15° SW 09:14:58 26° W 09:18:49 10° NW visible
08 Jul 7.9 08:06:55 18° SSE 08:10:16 70° ENE 08:14:50 10° N visible
08 Jul 9.7 09:45:56 10° WSW 09:47:48 12° W 09:49:40 10° WNW visible
09 Jul 10.2 07:03:10 10° ESE 07:06:08 17° ENE 07:09:05 10° NNE visible
09 Jul 7.9 08:39:51 21° S 08:42:46 54° W 08:47:17 10° NNW visible
